Location: Bílinka
(49.3579°N, 14.3767°E)
Time: 00:26:31
(UTC+00:00)

MOS 1-B - Pass Details

Date: 28 January 2023
Orbit: 904 x 913 km, 99.4° (Epoch: 31 March)

Event Time Altitude Azimuth Distance (km) Brightness Sun altitude
Rises 17:42:09 0° 160° (SSE) 3,525 7.3 -17.9°
Reaches altitude 10° 17:44:33 10° 160° (SSE) 2,589 6.6 -18.3°
Maximum altitude 17:50:20 87° 72° (ENE) 920 4.3 -19.3°
Drops below altitude 10° 17:56:11 10° 345° (NNW) 2,613 6.9 -20.2°
Sets 17:58:36 0° 345° (NNW) 3,560 7.6 -20.6°
